Showing default

RASSVET-3 3, 68362

Orbit data source: Space-Track

RASSVET-3 3, 68362 is a payload satellite owned by Byuro 1440 (CIS) in LEO that was launched on Mon, 23 Mar 2026 UTC via a SOYUZ-2-1B launch vehicle from the Plesetsk Missile And Space Complex (PKMTR). Payload-class satellites include a variety of spacecraft equipped with specific instruments for various scientific and technological missions. These include communications satellites like Starlink; space stations such as the ISS; scientific satellites like the Hubble; Earth observation satellites from companies like Planet Labs, Umbra, and HawkEye 360; GPS; miniature CubeSats for education and research; and military/defense satellites.

Loading next visibility...
Identifier
68362, 2026-061C
Orbit
LEO
Country
Flag of CISCIS
Related business
Manufacturer
Byuro 1440
Mission
Operational spacecraft
Bus & Motor
RASSVET-2, Unknown motor
Mass
~370 kg wet, ~370 kg dry
Launch date (UTC)
2026-03-23 (3 months ago)
Launch vehicle
SOYUZ-2-1B
Launch site
Plesetsk Missile And Space Complex (PKMTR)
Object type
Payload
Rocket body
Debris
Shape & HBR
Unknown shape, 2.1 m
Radar Cross Section
Large (>1 m²)

Expand to show TLE details & history
Last TLE update: 5 hours ago

TLE from 5 hours ago
0 RASSVET-3 3
1 68362U 26061C   26169.96334279  .00002034  00000-0  97252-4 0  9995
2 68362  82.2953  12.2648 0010854  27.3761 332.8042 15.18426694 13713
Epoch: 2026-06-18T23:07Z
TLE epoch observation values (Epoch: 2026-06-18T23:07:12.817Z)
Latitude
-0°
Longitude
118.26226°
Altitude
507.024 km
Speed
7.614 km/s
True Right ascension
00h 49m 03s
True Declination
0° 00' 00"
Sunlit
Object was in daylight at epoch
Visualization orbit readout
Latitude
Unknown
Longitude
Unknown
Altitude
Unknown
Speed
Unknown
Apparent Right ascension
Unknown
Apparent Declination
Unknown
Sunlit
N/A
Visualization observer readout
Local Sidereal Time
15:05:27
Azimuth
Unknown
Elevation
Unknown
Doppler factor
Unknown
Orbital elements
Apogee altitude
515.05 km
Perigee altitude
500.102 km
Semi-major axis
6,885.713 km
Eccentricity
0.00109
Inclination
82.2953°
RAAN
12.2648°
Arg. of periapsis
27.3761°
True anomaly
332.74729°
Mean anomaly
332.8042°
Eccentric anomaly
332.77575°
Mean motion
3.79857 °/min
Orbital period
94.77 mins
BSTAR
0.000097252
Loading maneuver chart data...
Computing Atmospheric mass density...
Loading historical data...
Loading historical data...
Loading historical data...
Loading historical data...
Loading historical data...
Loading historical data...
Loading historical data...

Documentation

Showing up to 5 results
|